Miscellaneous Local Product
Issued by NWS Hastings, NE

Home | Current Version | Previous Version | Graphics & Text | Print | Product List | Glossary On
Versions: 1 2 3 4 5 6 7 8 9 10 11 12 13 14 15 16 17 18 19 20 21 22 23 24 25 26 27 28 29 30 31 32 33 34 35 36 37 38 39 40 41 42 43 44 45 46 47 48 49 50
979
AXUS43 KGID 220502
MISGRI

GID CWA HOURLY WEATHER ROUNDUP
NATIONAL WEATHER SERVICE HASTINGS NE
1200 AM CDT TUE AUG 22 2017

NOTE: "FAIR" INDICATES FEW OR NO CLOUDS BELOW 12,000 FEET WITH NO
SIGNIFICANT WEATHER AND/OR OBSTRUCTIONS TO VISIBILITY.

...SOUTH CENTRAL NEBRASKA...

CITY           SKY/WX    TMP DP  RH WIND       PRES   REMARKS
GRAND ISLAND   CLOUDY    67  66  97 N8        30.05S
HASTINGS       PTCLDY    69  64  84 NE10      30.05R
KEARNEY        CLOUDY    69  66  90 N13       30.07R
ORD            CLEAR     63  60  90 NW6       30.08R
YORK           CLOUDY    68  66  94 NE12      30.03S
AURORA         MOCLDY    66  65  97 N5        30.04S
LEXINGTON      CLOUDY    70  65  82 NE10      30.10R
HOLDREGE       MOCLDY    70  64  81 N15G21    30.07R
HEBRON         PTCLDY    76  72  87 N13       29.98R

...NEBRASKA PANHANDLE...

CITY           SKY/WX    TMP DP  RH WIND       PRES   REMARKS
CHADRON        CLEAR     57  45  64 CALM      30.20R
ALLIANCE       CLEAR     54  47  77 NE8       30.21R
SCOTTSBLUFF    CLEAR     62  48  60 S6        30.23R
SIDNEY         CLEAR     58  49  72 N9        30.25R

...WESTERN AND NORTH CENTRAL NEBRASKA...

CITY           SKY/WX    TMP DP  RH WIND       PRES   REMARKS
VALENTINE      CLEAR     66  47  50 N10       30.16R
AINSWORTH      CLEAR     60  56  88 N9        30.15R
ONEILL         PTCLDY    64  64 100 W3        30.09R FOG
BROKEN BOW     CLEAR     68  65  90 N5        30.11R
IMPERIAL       CLEAR     64  61  90 N7        30.14R
NORTH PLATTE   CLEAR     66  63  90 N6        30.13R
MCCOOK         CLEAR     72  66  81 N16       30.07R

...EASTERN NEBRASKA...

CITY           SKY/WX    TMP DP  RH WIND       PRES   REMARKS
NORFOLK        PTCLDY    63  63 100 W5        30.03R
SO SIOUX CITY  PTCLDY    64  64 100 NW7       29.98F
TEKAMAH        CLOUDY    65  63  93 SW3       29.97S
COLUMBUS       CLOUDY    65  65 100 CALM      30.03S
ALBION         CLEAR     64  64  99 NW7       30.06S
OMAHA EPPLEY   CLOUDY    67  63  87 S9        29.97F
OFFUTT AFB     CLOUDY    66  64  94 SE3       29.96F
MILLARD        CLOUDY    67  65  94 SE3       29.97F
LINCOLN        CLOUDY    67  65  93 NE8       30.01R
NEBRASKA CITY  TSTM      65  65 100 E13       30.02R
BEATRICE       CLOUDY    73  68  86 NE16G22   30.00R
FALLS CITY     CLOUDY    71  69  93 S3        29.94R

...NORTHERN KANSAS...

CITY           SKY/WX    TMP DP  RH WIND       PRES   REMARKS
GOODLAND       CLEAR     70  66  87 N14       30.13R
HILL CITY      MOCLDY    76  68  76 N16G23    30.02R
NORTON         CLEAR     73  64  73 N14       30.05R
PHILLIPSBURG   CLEAR     75  66  73 N21G29    30.00R
SMITH CENTER   PTCLDY    72  66  83 N16G25    29.99R
HAYS           CLEAR     75  66  73 SW7       29.98R
RUSSELL        CLEAR     73  65  75 S6        29.96R
CONCORDIA      CLEAR     75  71  87 W5        29.93F
SALINA         PTCLDY    81  70  69 SW8       29.93F
TOPEKA         CLOUDY    73  73 100 NE12      29.97R



USA.gov is the U.S. government's official web portal to all federal, state and local government web resources and services.